Location: Pcim
(49.7500°N, 19.9670°E)
Time: 03:56:43
(UTC+02:00)

AO-91 - Pass Details

Date: 01 May 2024
Orbit: 441 x 736 km, 97.6° (Epoch: 23 May)

Event Time Altitude Azimuth Distance (km) Brightness Sun altitude
Rises 23:29:57 0° 360° (N) 2,468 ? -23.1°
Reaches altitude 10° 23:32:19 10° 342° (NNW) 1,613 ? -23.3°
Maximum altitude 23:34:51 20° 294° (WNW) 1,165 ? -23.4°
Enters shadow 23:36:19 16° 263° (W) 1,353 ? -23.4°
